TIANLIAN 2-02

Last updated on Mon Feb 16 2026 00:02:51 GMT+0000 (Coordinated Universal Time)

1 50005U 21124A 26046.50302370 -.00000010 00000+0 00000+0 0 9998 2 50005 0.4853 88.7400 0004766 202.2326 206.5740 1.00272734 15409
UTC large
Height (km)
Speed (km/s)
/
Latitude / Longitude
Inclination (degrees)
Orbital Period (minutes)
Azimuth
Elevation
Range (km)
Doppler Factor

Next 0 passes for location: London (51.5072 / 0.1276)

Sorry there are no passes over London.